NOAA 16 DEB, 41074

Orbit data source: Space-Track

NOAA 16 DEB, 41074 is space debris in SSO originally from a launch on Thu, 21 Sep 2000 UTC launched from the Air Force Western Test Range (AFWTR). Debris objects in space refer to the collection of defunct objects orbiting the Earth. Examples of debris include non-operational satellites, rocket bodies, and fragments generated from explosions, collisions, or faulty payload assembly.

Loading next visibility...
Identifier
41074, 2000-055AH
Orbit
SSO
Country
Flag of USUS
Related business
Manufacturer
Unknown
Mission
Spacecraft
Bus & Motor
Unknown
Mass
Unknown
Launch date (UTC)
2000-09-21 (25 years ago)
Launch vehicle
Unknown
Launch site
Air Force Western Test Range (AFWTR)
Object type
Payload
Rocket body
Debris
Shape & HBR
Unknown
Radar Cross Section
Small (<0.1 m²)

Expand to show TLE details & history
Last TLE update: 19 hours ago

TLE from 19 hours ago
0 NOAA 16 DEB
1 41074U 00055AH  25242.21656464  .00002920  00000-0  80733-3 0  9992
2 41074  98.8791  56.5076 0085846   2.5431 357.6178 14.45377921511495
Epoch: 2025-08-30T05:11Z
TLE epoch observation values (Epoch: 2025-08-30T05:11:51.184Z)
Latitude
-0.00009°
Longitude
-0.10969°
Altitude
682.657 km
Speed
7.547 km/s
True Right ascension
03h 46m 01s
True Declination
0° 00' 00"
Sunlit
Object was in daylight at epoch
Visualization orbit readout
Latitude
Unknown
Longitude
Unknown
Altitude
Unknown
Speed
Unknown
Apparent Right ascension
Unknown
Apparent Declination
Unknown
Sunlit
N/A
Visualization observer readout
Local Sidereal Time
15:44:38
Azimuth
Unknown
Elevation
Unknown
Doppler factor
Unknown
Orbital elements
Apogee altitude
799.006 km
Perigee altitude
676.829 km
Semi-major axis
7,116.055 km
Eccentricity
0.00858
Inclination
98.8791°
RAAN
56.5076°
Arg. of periapsis
2.5431°
True anomaly
357.57647°
Mean anomaly
357.6178°
Eccentric anomaly
357.59718°
Mean motion
3.61563 °/min
Orbital period
99.57 mins
BSTAR
0.00080733
Loading maneuver chart data...
Computing Atmospheric mass density...
Loading historical data...
Loading historical data...
Loading historical data...
Loading historical data...
Loading historical data...
Loading historical data...
Loading historical data...

Documentation

Showing up to 5 results
|